When you browse on this site, cookies collect data to enhance your experience and personalize the content and advertising you see.
Visit our Privacy Policy to learn more. By continuing to use the site, you agree to this use of cookies and data.
EN

Hourly Weather Akusha

Today, 14 August, Friday

Time Temperature Precipitation Wind Pressure Humidity
00:00 +14°C° 0 mm 1 mps 616 mmHg 77%
01:00 +14°C° 0 mm 1 mps 616 mmHg 79%
02:00 +13°C° 0 mm 1 mps 616 mmHg 80%
03:00 +13°C° 0 mm 1 mps 616 mmHg 82%
04:00 +13°C° 0 mm 1 mps 616 mmHg 83%
05:00 +13°C° 0 mm 1 mps 616 mmHg 84%
06:00 +13°C° 0 mm 1 mps 616 mmHg 85%
07:00 +13°C° 0.1 mm 1 mps 616 mmHg 83%
08:00 +14°C° 0.1 mm 1 mps 616 mmHg 82%
09:00 +15°C° 0 mm 2 mps 617 mmHg 80%
10:00 +15°C° 0.2 mm 2 mps 616 mmHg 81%
11:00 +15°C° 0.2 mm 2 mps 616 mmHg 82%
12:00 +15°C° 0.2 mm 2 mps 616 mmHg 84%
13:00 +14°C° 0.1 mm 2 mps 616 mmHg 85%
14:00 +14°C° 0.1 mm 2 mps 615 mmHg 86%
15:00 +14°C° 0 mm 1 mps 615 mmHg 85%
16:00 +14°C° 0 mm 1 mps 615 mmHg 86%
17:00 +14°C° 0 mm 1 mps 615 mmHg 86%
18:00 +13°C° 0 mm 1 mps 615 mmHg 86%
19:00 +12°C° 0 mm 0 mps 615 mmHg 88%
20:00 +12°C° 0 mm 0 mps 615 mmHg 89%
21:00 +11°C° 0 mm 0 mps 615 mmHg 91%
22:00 +11°C° 0 mm 0 mps 615 mmHg 90%
23:00 +11°C° 0 mm 0 mps 615 mmHg 90%

Tomorrow, 15 August, Saturday

Time Temperature Precipitation Wind Pressure Humidity
00:00 +12°C° 0 mm 1 mps 615 mmHg 90%
01:00 +12°C° 0.1 mm 1 mps 615 mmHg 90%
02:00 +12°C° 0.1 mm 1 mps 615 mmHg 90%
03:00 +12°C° 0.1 mm 1 mps 615 mmHg 90%
04:00 +11°C° 0.1 mm 1 mps 615 mmHg 91%
05:00 +11°C° 0.1 mm 1 mps 615 mmHg 92%
06:00 +10°C° 0.1 mm 1 mps 615 mmHg 93%
07:00 +10°C° 0.4 mm 1 mps 616 mmHg 93%
08:00 +10°C° 0.4 mm 1 mps 616 mmHg 93%
09:00 +11°C° 0.4 mm 1 mps 616 mmHg 93%
10:00 +10°C° 0.5 mm 1 mps 616 mmHg 93%
11:00 +10°C° 0.5 mm 1 mps 616 mmHg 93%
12:00 +10°C° 0.5 mm 1 mps 616 mmHg 93%
13:00 +11°C° 0.1 mm 1 mps 616 mmHg 89%
14:00 +11°C° 0.1 mm 1 mps 616 mmHg 84%
15:00 +11°C° 0.1 mm 1 mps 616 mmHg 79%
16:00 +11°C° 0 mm 1 mps 616 mmHg 79%
17:00 +10°C° 0 mm 0 mps 616 mmHg 79%
18:00 +10°C° 0 mm 0 mps 616 mmHg 80%
19:00 +10°C° 0 mm 0 mps 616 mmHg 81%
20:00 +9°C° 0 mm 0 mps 616 mmHg 82%
21:00 +9°C° 0 mm 0 mps 616 mmHg 83%
22:00 +9°C° 0 mm 0 mps 616 mmHg 82%
23:00 +10°C° 0 mm 1 mps 616 mmHg 81%

Day after tomorrow, 16 August, Sunday

Time Temperature Precipitation Wind Pressure Humidity
00:00 +10°C° 0 mm 1 mps 616 mmHg 80%
01:00 +9°C° 0 mm 1 mps 616 mmHg 80%
02:00 +9°C° 0 mm 1 mps 615 mmHg 80%
03:00 +8°C° 0 mm 1 mps 615 mmHg 80%
04:00 +8°C° 0 mm 1 mps 615 mmHg 80%
05:00 +9°C° 0 mm 1 mps 615 mmHg 80%
06:00 +9°C° 0 mm 1 mps 615 mmHg 79%
07:00 +11°C° 0 mm 1 mps 616 mmHg 74%
08:00 +12°C° 0 mm 2 mps 617 mmHg 69%
09:00 +14°C° 0 mm 2 mps 618 mmHg 64%
10:00 +14°C° 0 mm 2 mps 618 mmHg 64%
11:00 +14°C° 0 mm 3 mps 618 mmHg 64%
12:00 +14°C° 0 mm 3 mps 618 mmHg 64%
13:00 +14°C° 0 mm 3 mps 618 mmHg 65%
14:00 +14°C° 0 mm 3 mps 617 mmHg 66%
15:00 +14°C° 0 mm 3 mps 617 mmHg 67%
16:00 +14°C° 0 mm 2 mps 617 mmHg 72%
17:00 +13°C° 0 mm 2 mps 617 mmHg 77%
18:00 +13°C° 0 mm 2 mps 616 mmHg 82%
19:00 +12°C° 0 mm 1 mps 616 mmHg 85%
20:00 +12°C° 0 mm 1 mps 616 mmHg 87%
21:00 +10°C° 0 mm 0 mps 616 mmHg 89%
22:00 +10°C° 0 mm 0 mps 616 mmHg 89%
23:00 +10°C° 0 mm 0 mps 616 mmHg 89%

17 August, Monday

Time Temperature Precipitation Wind Pressure Humidity
00:00 +10°C° 0 mm 0 mps 616 mmHg 89%
01:00 +10°C° 0 mm 0 mps 616 mmHg 90%
02:00 +10°C° 0 mm 0 mps 616 mmHg 91%
03:00 +10°C° 0 mm 1 mps 616 mmHg 92%
04:00 +10°C° 0.3 mm 1 mps 616 mmHg 93%
05:00 +10°C° 0.3 mm 1 mps 616 mmHg 94%
06:00 +10°C° 0.3 mm 1 mps 616 mmHg 96%
07:00 +10°C° 1.9 mm 1 mps 616 mmHg 96%
08:00 +10°C° 1.9 mm 1 mps 617 mmHg 97%
09:00 +9°C° 1.9 mm 2 mps 617 mmHg 97%
10:00 +9°C° 2.5 mm 2 mps 617 mmHg 97%
11:00 +9°C° 2.5 mm 2 mps 617 mmHg 97%
12:00 +8°C° 2.5 mm 2 mps 617 mmHg 97%
13:00 +10°C° 1 mm 1 mps 617 mmHg 93%
14:00 +10°C° 1 mm 1 mps 617 mmHg 90%
15:00 +10°C° 1 mm 1 mps 617 mmHg 87%
16:00 +10°C° 0.5 mm 0 mps 618 mmHg 86%
17:00 +10°C° 0.5 mm 0 mps 618 mmHg 85%
18:00 +10°C° 0.5 mm 0 mps 618 mmHg 84%
19:00 +9°C° 0 mm 0 mps 617 mmHg 85%
20:00 +9°C° 0 mm 1 mps 617 mmHg 86%
21:00 +8°C° 0 mm 1 mps 617 mmHg 88%
22:00 +8°C° 0 mm 1 mps 617 mmHg 87%
23:00 +7°C° 0 mm 1 mps 617 mmHg 86%

18 August, Tuesday

Time Temperature Precipitation Wind Pressure Humidity
00:00 +7°C° 0 mm 1 mps 617 mmHg 85%
01:00 +7°C° 0 mm 1 mps 616 mmHg 84%
02:00 +7°C° 0 mm 1 mps 616 mmHg 84%
03:00 +7°C° 0 mm 1 mps 616 mmHg 83%
04:00 +7°C° 0 mm 1 mps 616 mmHg 82%
05:00 +8°C° 0 mm 1 mps 616 mmHg 81%
06:00 +8°C° 0 mm 1 mps 616 mmHg 80%
07:00 +10°C° 0 mm 1 mps 617 mmHg 74%
08:00 +12°C° 0 mm 1 mps 618 mmHg 69%
09:00 +14°C° 0 mm 2 mps 619 mmHg 64%
10:00 +15°C° 0 mm 2 mps 619 mmHg 63%
11:00 +16°C° 0 mm 2 mps 619 mmHg 61%
12:00 +17°C° 0 mm 3 mps 619 mmHg 59%
13:00 +17°C° 0 mm 3 mps 619 mmHg 61%
14:00 +17°C° 0 mm 3 mps 619 mmHg 63%
15:00 +17°C° 0 mm 3 mps 618 mmHg 65%
16:00 +16°C° 0 mm 2 mps 618 mmHg 71%
17:00 +15°C° 0 mm 2 mps 617 mmHg 77%
18:00 +14°C° 0 mm 1 mps 617 mmHg 82%
19:00 +13°C° 0 mm 1 mps 617 mmHg 85%
20:00 +12°C° 0 mm 1 mps 616 mmHg 87%
21:00 +11°C° 0 mm 1 mps 616 mmHg 90%
22:00 +10°C° 0 mm 1 mps 616 mmHg 89%
23:00 +10°C° 0 mm 1 mps 616 mmHg 88%

19 August, Wednesday

Time Temperature Precipitation Wind Pressure Humidity
00:00 +10°C° 0 mm 1 mps 615 mmHg 87%
01:00 +10°C° 0 mm 1 mps 615 mmHg 86%
02:00 +10°C° 0 mm 1 mps 615 mmHg 85%
03:00 +10°C° 0 mm 1 mps 615 mmHg 85%
04:00 +10°C° 0 mm 1 mps 615 mmHg 84%
05:00 +10°C° 0 mm 1 mps 615 mmHg 83%
06:00 +11°C° 0 mm 1 mps 615 mmHg 82%
07:00 +13°C° 0 mm 1 mps 616 mmHg 76%
08:00 +14°C° 0 mm 1 mps 617 mmHg 71%
09:00 +16°C° 0 mm 2 mps 617 mmHg 65%
10:00 +17°C° 0 mm 2 mps 618 mmHg 64%
11:00 +17°C° 0 mm 2 mps 618 mmHg 64%
12:00 +18°C° 0 mm 3 mps 618 mmHg 63%
13:00 +17°C° 0.1 mm 3 mps 617 mmHg 67%
14:00 +17°C° 0.1 mm 2 mps 617 mmHg 71%
15:00 +16°C° 0.1 mm 2 mps 617 mmHg 75%
16:00 +16°C° 0.3 mm 2 mps 617 mmHg 79%
17:00 +15°C° 0.3 mm 1 mps 616 mmHg 83%
18:00 +15°C° 0.3 mm 1 mps 616 mmHg 87%
19:00 +14°C° 0.2 mm 1 mps 616 mmHg 88%
20:00 +13°C° 0.2 mm 1 mps 616 mmHg 89%
21:00 +12°C° 0.2 mm 1 mps 616 mmHg 90%
22:00 +11°C° 0 mm 1 mps 615 mmHg 89%
23:00 +11°C° 0 mm 1 mps 615 mmHg 88%
Show more